TimeEST,TemperatureF,Dew PointF,Humidity,Sea Level PressureIn,VisibilityMPH,Wind Direction,Wind SpeedMPH,Gust SpeedMPH,PrecipitationIn,Events,Conditions,WindDirDegrees,DateUTC
12:54 AM,1.0,-9999,N/A,30.72,5.0,Calm,Calm,-,N/A,,Haze,0,2012-11-18 05:54:00
1:54 AM,-9999,-9999,N/A,30.69,7.0,Calm,Calm,-,N/A,,Clear,0,2012-11-18 06:54:00
2:54 AM,-9999,-9999,N/A,30.68,7.0,Calm,Calm,-,N/A,,Clear,0,2012-11-18 07:54:00
3:54 AM,-9999,-9999,N/A,30.68,8.0,Calm,Calm,-,N/A,,Clear,0,2012-11-18 08:54:00
4:54 AM,-9999,-9999,N/A,30.69,8.0,Calm,Calm,-,N/A,,Clear,0,2012-11-18 09:54:00
5:54 AM,-9999,-9999,N/A,30.71,9.0,Calm,Calm,-,N/A,,Clear,0,2012-11-18 10:54:00
7:54 AM,-9999,-9999,N/A,30.74,7.0,Calm,Calm,-,N/A,,Clear,0,2012-11-18 12:54:00
8:54 AM,-9999,-9999,N/A,30.74,10.0,Calm,Calm,-,N/A,,Clear,0,2012-11-18 13:54:00
9:54 AM,-9999,-9999,N/A,30.73,10.0,Calm,Calm,-,N/A,,Clear,0,2012-11-18 14:54:00
10:54 AM,-9999,-9999,N/A,30.71,10.0,Calm,Calm,-,N/A,,Clear,0,2012-11-18 15:54:00
11:54 AM,-9999,-9999,N/A,30.67,10.0,Calm,Calm,-,N/A,,Clear,0,2012-11-18 16:54:00
12:54 PM,-9999,-9999,N/A,30.65,10.0,Calm,Calm,-,N/A,,Clear,0,2012-11-18 17:54:00
1:54 PM,-9999,-9999,N/A,30.64,10.0,SE,4.6,-,N/A,,Clear,130,2012-11-18 18:54:00
2:54 PM,-9999,-9999,N/A,30.63,10.0,Calm,Calm,-,N/A,,Clear,0,2012-11-18 19:54:00
3:54 PM,-9999,-9999,N/A,30.63,10.0,Calm,Calm,-,N/A,,Clear,0,2012-11-18 20:54:00
4:54 PM,-9999,-9999,N/A,30.64,10.0,Calm,Calm,-,N/A,,Clear,0,2012-11-18 21:54:00
5:54 PM,-9999,-9999,N/A,30.64,10.0,Calm,Calm,-,N/A,,Clear,0,2012-11-18 22:54:00
6:54 PM,1.0,-9999,N/A,30.65,10.0,Calm,Calm,-,N/A,,Clear,0,2012-11-18 23:54:00
7:54 PM,1.0,-9999,N/A,30.65,8.0,Calm,Calm,-,N/A,,Clear,0,2012-11-19 00:54:00
8:54 PM,-9999,-9999,N/A,30.65,9.0,Calm,Calm,-,N/A,,Clear,0,2012-11-19 01:54:00
9:54 PM,-9999,-9999,N/A,30.64,7.0,Calm,Calm,-,N/A,,Clear,0,2012-11-19 02:54:00
10:54 PM,-9999,-9999,N/A,30.64,6.0,Calm,Calm,-,N/A,,Haze,0,2012-11-19 03:54:00